Location: Unspecified
(64.9000°N, 0.0000°E)
Time: 21:02:54
(UTC+00:00)

A-11 Canister half - Pass Details

Date: 18 June 2019
Orbit: 1526 x 1683 km, 47.3° (Epoch: 19 July)

Event Time Altitude Azimuth Distance (km) Brightness Sun altitude
Rises 12:27:18 0° 271° (W) 4,682 11.6 48.3°
Maximum altitude 12:35:30 10° 228° (SW) 3,712 11.7 48.1°
Drops below altitude 10° 12:35:31 10° 228° (SW) 3,712 11.7 48.1°
Sets 12:43:49 0° 184° (S) 4,726 12.2 47.9°
